User: anonymous
Location: Albany
(35.0000°S, 118.0000°E)
Time: 17:36:59
(UTC-04:00)
Language:

ADEOS Rocket - Orbit

View from above orbital plane
View from above orbital plane
View from above satellite
View from above satellite

Ground track
Ground track

The orbit data is extracted from the following two-line orbital elements,

1 24279U 96046C   14233.87751025 -.00000037  00000-0 -24319-5 0  7058
2 24279 098.7422 293.3023 0300550 037.6521 018.3275 13.46988553885534
Epoch (UTC): 21 August 2014 21:03:36
Eccentricity: 0.0300550
inclination: 98.7422°
perigee height: 859 km
apogee height: 1307 km
right ascension of ascending node: 293.3023°
argument of perigee: 37.6521°
revolutions per day: 13.46988553
mean anomaly at epoch: 18.3275°
orbit number at epoch: 88553

The dashed part of the orbit path shows where the satellite is in the earth's shadow,  

DLR